Change the Weather History Date:

Monday, April 22, 2013

  Actual Average Record
Temperature  
Mean Temperature 66 °F -  
Max Temperature 84 °F 73 °F 95 °F (2009)
Min Temperature 50 °F 49 °F 44 °F (1998)
Cooling Degree Days 2    
Growing Degree Days 16 (Base 50)    
Moisture  
Dew Point 54 °F    
Average Humidity 69    
Maximum Humidity 90    
Minimum Humidity 39    
Precipitation  
Precipitation 0.00 in - - ()
Sea Level Pressure  
Sea Level Pressure 29.86 in    
Wind  
Wind Speed 16 mph (SE)    
Max Wind Speed 24 mph    
Max Gust Speed 31 mph    
Visibility 10 miles    
Events      
Averages and records for this station are not official NWS values.
T = Trace of Precipitation, MM = Missing Value Source: NWS Daily Summary

Daily Weather History Graph

Daily Weather History Graph

Search for Another Location

Airport or City:

Trip Planner

Search our weather history database for the weather conditions in past years. The results will help you decide how hot, cold, wet, or windy it might be!

Date:

Astronomy

Apr. 22, 2013 Rise Set
Actual Time 6:56 AM CDT 8:15 PM CDT
Civil Twilight 6:30 AM CDT 8:41 PM CDT
Nautical Twilight 5:58 AM CDT 9:12 PM CDT
Astronomical Twilight 5:25 AM CDT 9:45 PM CDT
Moon 5:12 PM CDT (4/22) 4:43 AM CDT (4/22)
Length of Visible Light 14h 11m
Length of Day
13h 18m
Waxing Gibbous, 88% of the Moon is Illuminated
Apr 22
Waxing Gibbous
Apr 25
Full
May 2
Last Quarter
May 9
New
May 17
First Quarter

Hourly Weather History & Observations

Time (CDT) Temp. Heat Index Dew Point Humidity Pressure Visibility Wind Dir Wind Speed Gust Speed Precip Events Conditions
12:58 AM 55.0 °F - 49.6 °F 82% 30.03 in 10.0 mi SE 11.5 mph - N/A   Clear
1:58 AM 54.1 °F - 49.5 °F 84% 30.03 in 10.0 mi ESE 12.7 mph - N/A   Clear
3:58 AM 51.8 °F - 48.9 °F 90% 29.99 in 10.0 mi SE 10.4 mph - N/A   Clear
4:58 AM 51.6 °F - 48.7 °F 90% 29.97 in 10.0 mi ESE 12.7 mph - N/A   Clear
5:58 AM 51.4 °F - 48.2 °F 89% 29.96 in 10.0 mi SE 10.4 mph - N/A   Clear
6:58 AM 50.7 °F - 48.0 °F 90% 29.97 in 10.0 mi SE 10.4 mph - N/A   Clear
7:58 AM 51.4 °F - 48.7 °F 90% 29.97 in 10.0 mi SE 10.4 mph - N/A   Clear
8:56 AM 55.4 °F - 50.0 °F 82% 29.98 in 10.0 mi SSE 16.1 mph 23.0 mph N/A   Mostly Cloudy
8:58 AM 55.4 °F - 50.0 °F 82% 29.97 in 10.0 mi SSE 15.0 mph 23.0 mph N/A   Mostly Cloudy
9:18 AM 57.2 °F - 51.8 °F 82% 29.97 in 10.0 mi SSE 20.7 mph - N/A   Overcast
9:33 AM 59.0 °F - 53.6 °F 82% 29.96 in 10.0 mi SSE 16.1 mph - N/A   Overcast
9:58 AM 60.1 °F - 54.1 °F 81% 29.94 in 10.0 mi SE 20.7 mph 27.6 mph N/A   Overcast
10:18 AM 60.8 °F - 55.4 °F 82% 29.94 in 10.0 mi SSE 19.6 mph - N/A   Overcast
10:58 AM 63.5 °F - 56.5 °F 78% 29.94 in 10.0 mi SSE 19.6 mph - N/A   Overcast
11:03 AM 64.4 °F - 57.2 °F 77% 29.95 in 10.0 mi SSE 19.6 mph - N/A   Overcast
11:58 AM 68.9 °F - 57.9 °F 68% 29.90 in 10.0 mi SSE 23.0 mph 29.9 mph N/A   Mostly Cloudy
12:58 PM 73.2 °F - 58.3 °F 59% 29.88 in 10.0 mi South 20.7 mph 25.3 mph N/A   Mostly Cloudy
1:55 PM 77.0 °F - 57.2 °F 50% 29.86 in 10.0 mi South 23.0 mph 28.8 mph N/A   Scattered Clouds
1:58 PM 77.4 °F - 57.6 °F 50% 29.83 in 10.0 mi South 20.7 mph 28.8 mph N/A   Scattered Clouds
2:58 PM 80.2 °F 80.4 °F 56.7 °F 44% 29.79 in 10.0 mi South 24.2 mph 28.8 mph N/A   Partly Cloudy
3:58 PM 82.2 °F 81.6 °F 55.9 °F 40% 29.76 in 10.0 mi South 19.6 mph 26.5 mph N/A   Clear
4:58 PM 83.7 °F 82.8 °F 55.9 °F 39% 29.72 in 10.0 mi SSE 18.4 mph 25.3 mph N/A   Clear
5:58 PM 83.3 °F 82.9 °F 57.7 °F 42% 29.68 in 10.0 mi SE 23.0 mph 31.1 mph N/A   Clear
6:58 PM 79.9 °F - 58.3 °F 48% 29.68 in 10.0 mi ESE 21.9 mph 29.9 mph N/A   Clear
7:58 PM 76.1 °F - 56.8 °F 51% 29.66 in 10.0 mi ESE 19.6 mph - N/A   Clear
8:58 PM 73.0 °F - 56.1 °F 55% 29.67 in 10.0 mi ESE 19.6 mph - N/A   Clear
9:58 PM 70.3 °F - 56.1 °F 61% 29.68 in 10.0 mi ESE 17.3 mph 25.3 mph N/A   Clear
10:58 PM 69.1 °F - 56.3 °F 64% 29.68 in 10.0 mi ESE 18.4 mph - N/A   Clear
11:58 PM 64.0 °F - 57.2 °F 78% 29.71 in 10.0 mi North 17.3 mph - N/A   Clear